[[{"header":{"parameterUnit":"m.s-1","parameterCategory":1,"la1":30.2991,"la2":30.254,"lo1":-89.0895,"lo2":-89.0444,"dy":0.0017,"dx":0.0017,"nx":28,"ny":28,"refTime":"2024-07-28T03:00:00:Z","depth":0,"parameterNumber":2,"parameterNumberName":"U-component_of_WINDS"},"data":[0,0,0,0,0,0,0,0,0,0,0,0,0,0,0,0,0,0,0,0,0,0,0,0,0,0,0,0,0,0,0,0,0,0,0,0,0,0,0,0,0,0,0,0,0,0,0,0,0,0,0,0,0,0,0,0,0,0,0.1247,0.1248,0,0.1297,0.1298,0.1298,0.1325,0.1325,0.1326,0.1326,0.1379,0.1381,0.1382,0,0,0,0,0,0,0,0,0,0,0,0,0,0.1179,0.118,0.1247,0.1248,0.1249,0.1297,0.1298,0.1298,0.1325,0.1325,0.1326,0.1326,0.1379,0.1381,0.1382,0,0,0,0,0,0,0,0,0,0,0,0,0,0.1216,0.118,0.1247,0.1268,0.127,0.1297,0.1298,0.1298,0.1325,0.1325,0.1326,0.1326,0.1378,0.138,0.1383,0.1393,0,0,0.1389,0.139,0,0,0,0,0,0,0,0,0.1214,0.1219,0.1264,0.1266,0.1269,0.1305,0.1293,0.133,0.1325,0.1305,0.1326,0.1326,0.1355,0.1359,0.1368,0.1396,0.1398,0.1389,0.139,0.1391,0.1392,0,0,0,0,0,0,0,0.1212,0.1217,0.1267,0.1265,0.1268,0.1275,0.1281,0.13,0.1329,0.1306,0.1308,0.1314,0.1356,0.1366,0.137,0.1399,0.1389,0.1391,0.1392,0.1393,0.1438,0.1438,0,0,0,0,0,0,0.1205,0.1215,0.1266,0.1269,0.1241,0.1277,0.1283,0.1293,0.1328,0.1334,0.1314,0.1315,0.1362,0.1367,0.1372,0.1386,0.1391,0.1393,0.1394,0.1438,0.1438,0.1438,0,0,0,0,0,0,0.1204,0.121,0.1264,0.1242,0.125,0.1278,0.129,0.1294,0.1304,0.1334,0.1339,0.1318,0.1363,0.1369,0.1387,0.1388,0.1394,0.1396,0.1438,0.1438,0.1438,0.1416,0,0,0,0,0,0,0.1202,0.1209,0.1213,0.1242,0.1251,0.1278,0.129,0.1295,0.1307,0.1309,0.134,0.1345,0.1363,0.1384,0.1389,0.1391,0.1397,0.1438,0.1438,0.1438,0.1416,0.1415,0.1414,0,0,0,0,0,0.1199,0.1205,0.1213,0.1219,0.1256,0.1278,0.1283,0.1303,0.1307,0.1312,0.1331,0.1344,0.1387,0.1386,0.1392,0.1395,0.1438,0.1438,0.1438,0.1417,0.1415,0.1414,0,0,0,0,0,0,0.1176,0.1209,0.1218,0.1234,0.1253,0.1282,0.1289,0.13,0.1319,0.132,0.1345,0.1352,0.1368,0.1384,0.1381,0.1407,0.1414,0.1415,0.1396,0.1395,0.1393,0.1389,0.1399,0,0,0,0,0,0.1173,0.1187,0.1216,0.1227,0.1236,0.126,0.1271,0.1284,0.1305,0.1314,0.1334,0.1355,0.1373,0.1385,0.1403,0.1419,0.1426,0.1424,0.1422,0.1421,0.1422,0.1431,0.143,0.1438,0.1438,0.1438,0,0,0.1167,0.1186,0.1194,0.1223,0.1239,0.1254,0.1267,0.1282,0.1294,0.1317,0.1335,0.1351,0.1375,0.1392,0.1401,0.1405,0.1421,0.1421,0.1419,0.1421,0.143,0.143,0.1429,0.1437,0.1437,0.1437,0,0,0.1162,0.1179,0.119,0.1205,0.1229,0.1245,0.1248,0.1276,0.1287,0.1305,0.1323,0.1337,0.1368,0.1385,0.1397,0.1399,0.1411,0.1404,0.1397,0.1405,0.1404,0.1404,0.1404,0.1404,0.1405,0.1405,0.1405,0,0.1152,0.1174,0.1194,0.1208,0.122,0.124,0.1251,0.1266,0.1295,0.1303,0.1308,0.1347,0.1365,0.1386,0.1386,0.1396,0.14,0.1401,0.1403,0.1402,0.1402,0.1403,0.1403,0.1404,0.1404,0.1404,0.1404,0,0.1159,0.1174,0.118,0.1207,0.122,0.1232,0.1255,0.1266,0.1278,0.1294,0.1313,0.1335,0.1358,0.1364,0.1377,0.1387,0.1389,0.1398,0.1406,0.14,0.1401,0.1402,0.1402,0.1402,0.1403,0.1403,0,0,0.1143,0.1179,0.1181,0.1193,0.1221,0.1233,0.1247,0.1268,0.1277,0.1296,0.1309,0.1334,0.1342,0.1356,0.1371,0.1378,0.1378,0.1386,0.1387,0.1384,0.139,0.1383,0.1383,0.1386,0.1386,0.1386,0.1388,0,0.1143,0.1167,0.1185,0.1203,0.1217,0.1236,0.1248,0.1266,0.1282,0.1296,0.1314,0.1331,0.134,0.1349,0.1357,0.1376,0.1379,0.1376,0.1398,0.1399,0.1391,0.1383,0.1376,0.1376,0.1388,0.1388,0.1388,0,0.1146,0.1163,0.1181,0.1207,0.1214,0.1224,0.1245,0.1259,0.128,0.1291,0.1306,0.1321,0.1337,0.1343,0.1365,0.1363,0.1373,0.1383,0.1384,0.1387,0.1393,0.1386,0.1377,0.1377,0.1389,0.1389,0.1389,0,0.1131,0.1159,0.1174,0.1184,0.1214,0.1221,0.1234,0.1255,0.1267,0.1285,0.1293,0.1314,0.1325,0.1341,0.1361,0.1364,0.1381,0.1389,0.1391,0.139,0.1394,0.1394,0.1386,0.1401,0.1401,0.1401,0.1401,0,0.1129,0.114,0.1168,0.1177,0.119,0.1211,0.1223,0.1238,0.1256,0.1269,0.1287,0.1299,0.1325,0.134,0.1357,0.1372,0.1378,0.1387,0.1391,0.1385,0.1384,0.1392,0.1393,0.1401,0.1401,0.1401,0.1401,0,0.1115,0.1135,0.1152,0.1179,0.1186,0.1194,0.1217,0.1227,0.1242,0.1258,0.1263,0.1288,0.1307,0.1329,0.1355,0.1366,0.138,0.1387,0.1373,0.1375,0.1375,0.1375,0.1373,0.1374,0.1387,0.1387,0.1387,0,0.1113,0.1121,0.1148,0.1157,0.117,0.1185,0.1196,0.1217,0.1229,0.1253,0.126,0.128,0.1297,0.1325,0.1347,0.1367,0.1373,0.1371,0.1377,0.137,0.1373,0.1372,0.1373,0.137,0.137,0.137,0.1369,0,0.1106,0.1115,0.113,0.1148,0.1161,0.1177,0.1194,0.1201,0.1226,0.1238,0.1256,0.1269,0.1295,0.1314,0.1337,0.1351,0.1364,0.1367,0.1369,0.1363,0.1354,0.1359,0.1369,0.1368,0.1368,0.1368,0.1368,0.1368,0.1097,0.1106,0.1126,0.1142,0.1157,0.1172,0.1182,0.1198,0.1214,0.1236,0.1248,0.1266,0.1287,0.1318,0.1332,0.1347,0.1352,0.1354,0.1354,0.1355,0.1353,0.1352,0.1351,0.1352,0.1352,0.1352,0.1352,0,0.1091,0.1105,0.112,0.1142,0.1155,0.1165,0.1184,0.1194,0.121,0.1228,0.1244,0.1265,0.1283,0.1306,0.1326,0.1334,0.134,0.1338,0.1338,0.1341,0.1348,0.1344,0.1332,0.1332,0.1332,0.1332,0.1332,0.1332,0.1089,0.1104,0.1115,0.1136,0.115,0.1167,0.1177,0.1191,0.1206,0.1228,0.1243,0.1257,0.1277,0.1299,0.1316,0.1323,0.1329,0.1325,0.1333,0.1339,0.1341,0.1342,0.1339,0.1327,0.1327,0.1325,0.1325,0.1325]},{"header":{"parameterUnit":"m.s-1","parameterCategory":1,"la1":30.2991,"la2":30.254,"lo1":-89.0895,"lo2":-89.0444,"dy":0.0017,"dx":0.0017,"nx":28,"ny":28,"refTime":"2024-07-28T03:00:00:Z","depth":0,"parameterNumber":3,"parameterNumberName":"V-component_of_WINDS"},"data":[0,0,0,0,0,0,0,0,0,0,0,0,0,0,0,0,0,0,0,0,0,0,0,0,0,0,0,0,0,0,0,0,0,0,0,0,0,0,0,0,0,0,0,0,0,0,0,0,0,0,0,0,0,0,0,0,0,0,1.3189,1.3189,0,1.3171,1.3171,1.3171,1.3169,1.3169,1.3169,1.3169,1.3149,1.3148,1.3147,0,0,0,0,0,0,0,0,0,0,0,0,0,1.3219,1.3218,1.3189,1.3189,1.3189,1.3171,1.3171,1.3171,1.3169,1.3169,1.3169,1.3169,1.3149,1.3148,1.3147,0,0,0,0,0,0,0,0,0,0,0,0,0,1.3204,1.3218,1.3189,1.3186,1.3185,1.3172,1.3171,1.3171,1.3169,1.3169,1.3169,1.317,1.3149,1.3148,1.3147,1.3135,0,0,1.3144,1.3144,0,0,0,0,0,0,0,0,1.3205,1.3203,1.3186,1.3186,1.3185,1.3173,1.3174,1.3159,1.3169,1.3175,1.3169,1.317,1.3156,1.3155,1.3151,1.3134,1.3133,1.3144,1.3143,1.3143,1.3143,0,0,0,0,0,0,0,1.3206,1.3203,1.3182,1.3186,1.3185,1.3184,1.3182,1.3171,1.3164,1.3174,1.3174,1.3172,1.3156,1.3152,1.315,1.3133,1.3144,1.3143,1.3142,1.3142,1.3106,1.3105,0,0,0,0,0,0,1.3208,1.3204,1.3183,1.3181,1.3196,1.3183,1.3181,1.3176,1.3164,1.3163,1.3172,1.3172,1.3154,1.3152,1.315,1.3135,1.3143,1.3142,1.3141,1.3106,1.3106,1.3105,0,0,0,0,0,0,1.3208,1.3206,1.3183,1.3193,1.319,1.3183,1.3177,1.3176,1.3172,1.3163,1.3161,1.3169,1.3154,1.3151,1.3139,1.3134,1.3141,1.314,1.3106,1.3106,1.3105,1.3104,0,0,0,0,0,0,1.3209,1.3206,1.3202,1.3193,1.3189,1.3174,1.3177,1.3175,1.317,1.317,1.3159,1.3158,1.3154,1.3141,1.3138,1.3132,1.314,1.3107,1.3106,1.3105,1.3105,1.3104,1.3103,0,0,0,0,0,1.321,1.3202,1.3202,1.3199,1.3184,1.3173,1.3171,1.3167,1.317,1.3165,1.3159,1.3158,1.3135,1.3139,1.3136,1.313,1.3107,1.3106,1.3106,1.3105,1.3104,1.3103,0,0,0,0,0,0,1.321,1.3201,1.32,1.3189,1.3182,1.3173,1.3167,1.3166,1.3158,1.3158,1.3153,1.315,1.3138,1.3133,1.3138,1.3118,1.3121,1.312,1.3122,1.3121,1.312,1.3121,1.3139,0,0,0,0,0,1.3208,1.3201,1.3193,1.3184,1.3181,1.3175,1.317,1.3167,1.3159,1.3156,1.315,1.3142,1.3132,1.3126,1.3117,1.3104,1.3102,1.3099,1.3098,1.3097,1.3096,1.3088,1.3087,1.3103,1.3103,1.3103,0,0,1.3205,1.3199,1.3195,1.3184,1.3178,1.317,1.3172,1.3163,1.3157,1.3155,1.3143,1.3138,1.3128,1.3116,1.311,1.3111,1.3091,1.3096,1.3096,1.3095,1.3087,1.3086,1.3084,1.3102,1.3102,1.3102,0,0,1.3195,1.319,1.3182,1.3177,1.3168,1.3165,1.3163,1.3154,1.3151,1.3139,1.3137,1.3129,1.3113,1.3107,1.3101,1.3089,1.3088,1.3086,1.3082,1.3074,1.3073,1.3072,1.3067,1.3066,1.3085,1.3085,1.3085,0,1.3192,1.3181,1.3178,1.3169,1.3164,1.3163,1.3154,1.3148,1.3137,1.3133,1.3135,1.3115,1.3109,1.3095,1.3092,1.3087,1.3084,1.3087,1.3074,1.3072,1.3071,1.3067,1.3065,1.3085,1.3085,1.3085,1.3085,0,1.3177,1.3169,1.3163,1.3153,1.3148,1.3139,1.3134,1.3128,1.3126,1.3122,1.311,1.3102,1.3092,1.3088,1.3086,1.3073,1.3074,1.3075,1.3078,1.307,1.3065,1.3063,1.3085,1.3085,1.3085,1.3085,0,0,1.3166,1.3155,1.3153,1.3148,1.3139,1.3133,1.3124,1.3114,1.3109,1.3102,1.3093,1.308,1.3081,1.3075,1.3072,1.3065,1.3056,1.3067,1.3066,1.3065,1.3041,1.304,1.3038,1.3055,1.3055,1.3054,1.3042,0,1.3155,1.314,1.3137,1.3123,1.3115,1.3114,1.3106,1.3099,1.3095,1.3087,1.3082,1.3073,1.3075,1.3071,1.3064,1.3058,1.3051,1.3059,1.3047,1.3046,1.3049,1.3036,1.3035,1.3023,1.304,1.304,1.3039,0,1.314,1.3133,1.3118,1.3111,1.3107,1.31,1.3091,1.3084,1.3076,1.3073,1.3067,1.3064,1.3054,1.3058,1.3043,1.3049,1.3044,1.304,1.3039,1.3038,1.3042,1.3033,1.302,1.3018,1.3037,1.3037,1.3037,0,1.3132,1.3119,1.3109,1.3105,1.3096,1.3091,1.3087,1.3079,1.3074,1.3065,1.3062,1.3052,1.3047,1.3039,1.3034,1.3037,1.302,1.3023,1.3016,1.3017,1.3012,1.3013,1.2997,1.301,1.301,1.301,1.301,0,1.312,1.3111,1.3106,1.31,1.309,1.3086,1.3076,1.3072,1.3065,1.3057,1.3055,1.3048,1.3042,1.3033,1.3029,1.3017,1.3015,1.3012,1.3011,1.3012,1.3012,1.3008,1.3008,1.3009,1.3009,1.301,1.301,0,1.311,1.3106,1.3095,1.3087,1.3085,1.3078,1.3071,1.3064,1.306,1.305,1.3048,1.3041,1.3031,1.3026,1.3013,1.301,1.2997,1.2996,1.3,1.2999,1.2992,1.2993,1.2973,1.297,1.2985,1.2985,1.2985,0,1.3102,1.3095,1.3087,1.3082,1.3078,1.307,1.3065,1.3061,1.3055,1.3046,1.304,1.303,1.3022,1.3006,1.2999,1.2989,1.2988,1.2982,1.2987,1.2988,1.2987,1.2988,1.2987,1.2981,1.2981,1.2981,1.2981,0,1.3088,1.3087,1.308,1.3072,1.3065,1.3059,1.3052,1.3048,1.3043,1.3036,1.3026,1.302,1.3007,1.2997,1.2987,1.2981,1.298,1.2979,1.2977,1.2978,1.298,1.2978,1.2997,1.298,1.298,1.298,1.298,1.298,1.3079,1.3073,1.3066,1.3058,1.3053,1.3047,1.304,1.3036,1.3028,1.3017,1.3015,1.3005,1.2997,1.2983,1.2977,1.2968,1.2969,1.2966,1.2965,1.2965,1.2964,1.2982,1.2966,1.2966,1.2966,1.2966,1.2966,0,1.3065,1.306,1.3053,1.3044,1.3037,1.3038,1.303,1.3024,1.3016,1.3009,1.3001,1.2989,1.2979,1.2972,1.2962,1.2956,1.2955,1.2954,1.2954,1.2952,1.2964,1.2967,1.2955,1.2955,1.2955,1.2955,1.2955,1.2955,1.3056,1.3046,1.3044,1.3031,1.3027,1.3017,1.3013,1.3007,1.3001,1.2989,1.2981,1.2977,1.2969,1.2959,1.2949,1.2947,1.2943,1.2942,1.294,1.295,1.2952,1.2953,1.2955,1.2941,1.2941,1.2929,1.2929,1.2929]}]]